Temperature
21 21 21 20 20 20 18 18 17 17 16 15 15 15 15 15 15 15 14 14 14 14 13 13 13 13 12 12 12 12 11 11 11 11 10 10 10 10 10 10 10 9 9 9
20 21 20 19 20 20 19 18 18 16 15 15 15 15 15 15 15 14 14 14 13 13 13 13 12 12 12 12 11 11 11 11 11 10 10 10 10 10 9 9 9 9 9 9
18 20 19 17 18 18 17 16 16 15 14 14 14 14 14 15 14 14 14 13 13 13 13 12 12 12 11 11 11 11 11 10 10 10 10 10 9 9 9 9 9 9 9 9
17 18 19 18 19 19 17 15 15 15 14 14 14 15 15 15 14 14 13 13 13 13 12 12 12 11 11 11 10 10 10 10 10 9 9 9 9 9 9 9 9 9 9 8
17 18 18 18 18 18 17 15 15 14 14 14 14 14 13 14 14 13 13 13 12 12 12 11 11 11 10 10 10 9 9 9 9 9 9 9 8 8 8 8 8 8 8 8
17 18 18 17 18 19 17 14 14 14 13 14 13 10 11 14 13 13 12 12 12 11 11 10 10 10 9 9 9 8 8 8 8 8 8 8 8 8 8 8 8 8 8 8
16 17 16 17 18 17 15 14 15 15 14 14 12 12 13 13 13 12 12 11 11 10 10 9 9 8 8 8 8 7 7 7 7 7 7 7 7 7 7 7 7 7 7 8
15 16 16 17 17 15 14 15 15 15 14 14 14 13 13 12 12 11 11 10 9 9 8 8 8 7 7 7 6 6 6 6 6 6 6 6 6 6 7 7 7 7 7 7
15 15 16 17 16 16 16 15 15 14 14 14 13 13 12 11 11 10 9 9 8 8 7 7 7 6 6 6 6 5 5 5 5 5 6 6 6 6 6 6 7 7 7 7
15 15 16 16 16 16 15 15 14 14 13 13 12 12 11 10 10 9 9 8 7 7 7 6 6 6 5 5 5 5 5 5 5 5 5 5 5 6 6 6 6 6 7 7
15 16 16 16 16 15 15 14 14 13 13 12 12 11 10 10 9 8 8 7 7 6 6 6 5 5 5 5 5 5 5 5 5 5 5 5 5 5 5 6 6 6 6 7
14 15 14 15 15 15 14 14 13 13 12 12 11 10 9 9 8 8 7 7 6 6 5 5 5 5 5 5 5 5 4 4 5 5 5 5 5 5 5 6 6 6 6 6
17 17 16 16 15 14 14 13 13 12 11 11 10 9 9 8 8 7 7 6 6 5 5 5 5 5 5 5 4 4 4 4 4 4 5 5 5 5 5 6 6 6 6 6
17 16 16 15 14 14 13 13 12 11 11 10 9 9 8 8 7 7 6 6 5 5 5 5 5 5 5 5 5 4 4 4 4 4 5 5 5 5 5 5 5 6 6 6
16 16 15 15 14 13 13 12 11 11 10 10 9 8 8 7 7 6 6 5 5 5 5 5 5 5 5 5 5 5 5 5 5 5 5 5 5 5 5 5 5 6 6 6
16 15 15 14 13 13 12 11 11 10 9 9 8 8 7 7 6 6 6 5 5 5 5 5 5 5 5 5 5 5 5 5 5 5 5 5 5 5 5 5 5 6 6 6
16 15 14 13 13 12 11 11 10 10 9 9 8 8 7 7 6 6 6 5 5 5 5 5 5 5 5 5 5 5 5 5 5 5 5 5 5 5 6 6 6 6 6 6
15 15 14 13 12 12 11 10 10 9 9 8 8 8 7 6 6 5 5 5 5 6 6 5 5 6 6 6 6 5 6 6 6 6 6 6 6 6 6 6 6 6 6 6
15 14 13 13 12 11 11 10 10 9 9 8 8 7 7 6 6 6 6 5 5 5 5 6 6 6 6 6 6 6 6 6 6 6 6 6 6 6 6 6 6 6 6 6
14 14 13 12 12 11 10 10 9 9 9 8 8 7 7 6 6 6 6 6 5 5 6 6 6 6 6 6 6 6 6 6 6 6 6 6 6 6 6 6 6 6 6 7
14 13 13 12 11 11 10 10 9 9 8 8 7 7 6 6 6 6 5 5 6 6 6 6 6 7 7 7 7 7 7 7 7 6 6 6 7 7 7 7 7 7 7 7
14 13 12 12 11 10 10 10 9 9 8 8 7 7 6 6 6 6 6 5 6 6 6 6 7 7 7 7 7 7 7 7 7 7 7 7 7 7 7 7 7 7 7 7
13 13 12 11 11 10 10 9 9 9 8 7 7 7 6 6 6 5 5 6 6 6 7 7 7 7 7 8 7 7 7 7 7 7 7 7 7 7 7 8 8 8 8 8
13 13 12 11 11 10 10 9 9 8 8 7 7 6 6 6 6 6 6 6 7 7 7 7 8 8 8 8 8 8 8 8 8 7 7 8 8 8 8 8 8 8 8 9
13 13 12 11 11 10 10 9 9 8 8 7 7 7 6 6 5 6 6 6 7 7 8 8 8 8 8 8 8 8 8 8 8 8 8 8 8 8 8 8 8 9 9 9
13 13 12 11 11 10 10 9 9 8 8 7 7 7 6 6 6 6 6 6 7 7 8 8 8 8 8 9 9 9 9 9 8 8 8 8 8 8 8 9 9 9 9 9
13 12 12 11 11 10 10 9 8 8 7 7 7 6 6 6 6 6 6 6 6 7 7 8 8 8 8 9 9 9 9 9 9 9 9 9 9 9 9 9 9 9 9 10
Wind_Speed
2 4 9 9 9 9 8 5 3 1 3 2 2 3 4 6 8 6 5 6 7 7 7 8 9 9 9 9 10 10 9 9 10 11 10 10 10 10 10 10 10 9 9 9
5 7 11 11 10 7 7 5 3 4 3 2 3 4 6 8 7 5 7 8 9 9 9 9 10 10 10 10 10 9 10 11 11 10 10 10 10 10 10 10 10 9 9 9
4 2 4 6 6 6 5 5 4 2 2 5 6 8 8 9 7 8 10 10 10 10 10 11 11 11 11 11 10 9 10 11 10 10 10 10 10 9 9 10 9 9 9 9
2 6 4 3 1 5 6 4 4 2 3 5 7 8 8 8 8 10 11 11 11 11 11 11 11 11 11 10 10 10 10 11 10 10 10 10 9 9 10 9 8 9 10 10
3 2 1 0 3 3 1 2 2 3 6 7 8 7 7 9 9 11 12 12 12 11 12 11 11 11 11 10 10 10 10 10 10 10 10 9 9 10 9 8 9 9 8 10
3 2 3 4 4 4 1 3 3 4 7 8 8 8 8 10 10 11 12 11 11 11 11 11 11 10 10 10 10 10 11 11 10 9 10 10 11 10 9 8 9 9 9 9
3 1 3 4 4 5 3 6 6 5 7 7 6 8 10 12 11 11 11 12 12 11 10 11 11 10 11 11 12 12 12 11 11 10 10 11 11 9 9 8 8 8 9 9
2 2 5 4 3 2 5 6 6 6 6 8 9 10 11 11 11 12 11 11 11 10 11 11 11 11 12 14 14 13 13 12 12 12 11 11 9 9 8 8 8 8 8 8
6 5 5 1 4 4 5 4 5 5 7 8 9 10 11 10 10 11 11 11 11 12 13 13 12 12 14 15 14 14 13 13 12 12 11 10 9 9 8 7 7 7 6 7
3 2 3 3 2 1 1 3 5 6 7 8 9 10 11 10 10 11 10 12 11 12 14 15 14 14 14 15 14 14 13 12 11 10 10 9 8 8 7 7 7 7 6 6
2 1 0 3 3 3 3 5 6 7 7 8 9 9 9 10 11 11 11 10 11 13 15 17 16 16 16 15 14 13 12 11 10 9 9 8 8 7 8 7 7 7 6 6
5 6 4 5 5 3 5 6 7 7 8 9 7 9 9 10 10 11 13 13 14 15 16 17 17 17 16 14 12 12 11 10 8 7 7 7 6 7 9 10 10 12 10 8
6 5 5 2 2 4 4 6 6 7 8 9 8 8 10 10 10 12 14 15 15 16 17 17 17 17 15 13 12 11 11 9 7 7 6 6 6 5 5 5 6 7 8 9
6 4 2 1 2 4 5 6 6 7 8 8 8 9 10 10 12 15 16 16 16 17 17 16 17 16 15 13 12 11 10 11 9 6 6 5 5 5 4 3 2 1 2 4
5 5 3 1 3 5 5 5 7 8 9 9 8 10 11 12 14 16 16 16 16 17 17 17 17 16 15 13 12 11 9 7 6 5 4 4 4 3 3 3 3 2 1 2
5 5 5 4 5 5 5 6 6 8 8 9 9 10 12 12 14 15 16 16 18 18 18 17 17 17 16 13 12 9 8 11 8 4 3 2 2 2 2 2 3 3 3 4
5 2 2 2 3 4 4 5 6 7 8 9 10 11 12 13 14 16 17 17 16 16 15 15 17 17 15 13 11 8 7 7 8 4 2 1 1 1 2 2 2 3 3 5
8 6 6 4 2 2 5 5 7 8 7 8 10 11 12 13 15 16 17 18 17 16 15 16 17 18 15 13 10 7 6 5 4 2 1 1 0 1 2 2 2 3 4 4
8 8 7 6 4 2 3 5 6 7 7 8 9 10 11 12 13 15 16 17 17 17 19 19 22 17 14 14 13 7 6 6 4 2 1 1 1 2 2 2 3 4 5 5
8 7 7 5 4 2 3 5 6 6 7 7 8 10 11 13 13 15 15 14 12 14 18 19 18 14 13 12 13 7 6 5 4 2 2 2 2 2 2 3 4 4 4 5
8 7 6 4 2 3 4 5 5 6 7 7 8 9 11 12 13 13 13 13 15 18 19 18 14 13 11 12 11 6 6 5 4 3 2 2 3 3 3 3 4 4 4 4
7 6 5 2 1 3 4 4 4 5 6 7 8 9 10 12 13 13 11 10 14 20 16 12 13 16 17 13 7 6 6 5 4 3 3 3 3 3 3 4 4 4 4 4
6 5 4 2 2 3 4 4 4 4 5 6 7 8 9 9 9 11 13 12 13 19 15 12 19 23 19 10 7 7 7 6 4 4 3 3 2 3 3 3 3 3 4 4
6 6 5 3 1 1 3 4 4 4 4 4 5 7 7 8 9 8 9 14 18 18 13 15 20 22 17 10 9 8 7 7 5 4 3 3 2 2 3 3 3 3 4 4
8 6 4 3 2 1 2 2 3 4 4 4 6 7 6 6 7 9 11 13 17 16 13 15 19 19 14 11 10 9 8 7 6 5 4 3 3 3 3 4 4 4 3 3
7 6 5 5 4 3 2 0 1 2 2 3 4 5 6 7 8 9 9 12 14 15 13 12 14 14 13 12 12 11 9 9 8 5 4 3 3 4 4 4 4 4 3 3
6 5 4 3 3 3 2 1 1 1 1 2 3 5 6 7 8 9 11 11 11 12 12 11 11 12 12 12 12 11 10 9 9 8 6 5 4 4 4 4 3 3 3 4
Wind_Direction
318 75 78 69 61 62 72 91 113 113 116 37 7 358 336 326 321 326 331 323 306 290 279 274 270 267 262 259 258 255 251 248 247 248 248 249 249 250 250 250 252 247 248 252
12 93 91 72 46 47 55 46 65 97 90 339 330 344 333 327 323 316 304 297 292 287 281 275 271 268 265 262 259 254 251 251 251 251 251 249 248 248 248 248 248 245 243 246
330 311 81 38 17 45 53 34 73 94 289 311 330 329 315 309 297 294 296 294 289 283 274 272 270 267 267 265 262 258 257 259 257 253 251 248 252 252 247 246 244 243 244 242
359 28 36 226 21 72 102 84 81 96 303 305 296 289 284 288 288 295 296 291 286 281 278 274 271 272 271 269 266 264 263 263 260 256 254 250 246 247 247 244 242 243 244 242
74 44 144 280 6 3 305 197 41 340 315 307 301 315 298 284 284 285 286 285 283 281 282 284 284 282 282 281 278 276 274 270 266 262 259 255 251 247 244 242 244 244 243 241
64 43 245 255 307 311 358 236 286 337 319 309 327 327 297 288 288 289 289 289 291 293 294 295 291 291 292 290 288 284 281 277 273 266 262 259 256 252 248 243 244 246 248 243
69 352 257 278 315 34 57 275 290 299 299 300 295 273 280 295 297 295 296 298 301 302 301 295 295 296 293 290 285 283 283 280 276 269 263 261 257 252 249 247 247 247 250 249
83 17 278 303 48 95 234 256 282 290 292 292 288 287 295 302 303 307 308 309 309 306 302 300 299 300 296 291 288 287 284 280 277 272 271 275 261 256 250 244 248 251 250 256
173 206 226 132 142 198 215 265 284 290 297 300 304 303 306 308 310 310 310 308 305 306 307 306 303 300 296 294 292 290 286 281 278 274 267 263 259 259 257 246 242 245 240 249
110 154 160 134 139 306 310 304 304 307 309 317 313 311 315 315 313 312 309 309 311 314 314 311 308 303 297 296 293 290 286 283 278 274 271 264 257 251 249 245 241 239 235 241
129 220 202 334 339 338 350 347 337 330 322 322 321 319 317 316 315 314 314 313 316 317 314 312 310 307 304 300 296 291 288 283 279 272 269 266 258 249 245 239 232 229 231 227
207 220 198 261 289 356 9 344 333 333 329 326 326 319 320 318 315 316 318 318 318 316 314 313 312 310 309 306 302 298 294 288 281 273 271 266 261 267 255 246 247 238 235 228
171 181 178 242 358 10 355 340 338 340 335 329 326 323 324 319 317 321 321 321 320 317 315 314 313 313 314 311 307 303 297 294 287 276 270 264 256 251 265 272 254 245 240 227
149 133 90 5 337 347 351 345 348 344 336 329 325 325 325 322 321 324 324 322 319 317 317 317 317 317 318 315 310 304 299 297 292 279 273 266 255 246 236 236 249 262 257 220
133 130 147 124 23 5 356 355 355 342 332 330 328 328 327 327 326 324 323 323 323 322 322 323 323 322 319 316 313 308 304 299 293 282 271 264 257 243 229 211 202 189 143 92
123 94 79 56 22 3 359 1 352 334 330 330 330 326 325 324 323 324 326 328 329 327 325 326 325 323 322 319 316 312 307 309 311 295 279 269 260 239 207 188 180 170 163 148
126 113 85 47 19 9 1 351 339 329 328 330 325 323 327 330 330 330 331 329 326 323 324 328 328 326 324 323 320 315 310 313 319 318 307 287 244 184 165 167 171 164 160 162
140 143 139 124 100 24 355 344 333 330 326 320 322 329 334 335 333 331 331 330 330 330 334 334 331 330 327 327 326 319 319 317 319 317 322 5 69 139 145 147 148 139 133 141
126 120 110 96 88 55 351 326 323 322 320 322 328 330 330 331 330 330 332 334 337 340 339 336 330 333 331 332 336 328 332 335 344 354 9 67 67 88 110 121 121 126 133 139
124 118 106 90 67 31 333 320 325 324 321 324 331 333 335 334 334 335 335 336 338 339 333 331 333 335 334 333 339 336 342 351 1 13 33 72 91 96 100 108 114 120 129 138
131 123 112 97 35 343 326 324 327 325 323 331 337 334 333 333 336 338 340 340 339 340 337 332 339 340 336 335 335 342 348 354 5 22 37 60 88 97 102 110 114 120 127 132
145 138 133 132 330 317 313 319 325 329 333 340 341 341 342 341 340 340 338 337 335 336 340 341 345 342 342 341 347 353 357 4 18 32 46 63 86 96 104 113 116 119 124 130
161 161 163 195 244 285 316 330 334 339 342 346 347 347 344 338 339 343 340 337 338 337 341 345 344 345 348 356 357 358 3 12 27 39 47 59 82 98 107 116 121 122 125 128
170 174 187 205 197 10 332 319 328 343 350 352 351 349 345 343 342 342 331 330 339 339 345 345 347 351 356 4 4 5 6 11 19 27 36 48 64 80 94 108 116 119 122 123
178 181 185 177 177 219 252 309 347 355 1 356 349 348 348 348 341 338 337 340 344 347 351 351 354 357 3 5 8 8 7 7 10 15 31 41 48 66 81 93 104 114 116 118
181 184 188 186 182 184 183 117 357 340 354 357 348 346 348 347 346 347 346 346 348 351 356 358 359 1 3 5 7 8 7 4 6 11 21 40 54 63 73 85 102 110 117 120
182 172 161 154 161 160 149 134 109 356 18 22 356 347 349 352 354 354 354 355 356 357 358 0 2 3 3 5 8 10 11 10 9 10 17 31 48 64 73 83 87 93 105 111
Height
1501 1498 1500 1504 1504 1503 1507 1510 1518 1516 1517 1516 1514 1512 1510 1507 1504 1500 1498 1495 1492 1488 1485 1482 1478 1474 1471 1467 1464 1460 1457 1454 1451 1449 1447 1444 1442 1440 1438 1437 1435 1433 1432 1431
1506 1501 1503 1509 1507 1505 1507 1509 1511 1514 1518 1514 1512 1510 1507 1504 1500 1497 1493 1490 1486 1482 1479 1475 1471 1467 1462 1459 1455 1452 1448 1445 1443 1440 1437 1435 1433 1431 1430 1428 1427 1425 1424 1423
1515 1506 1506 1521 1514 1512 1513 1514 1514 1519 1518 1512 1509 1506 1503 1500 1496 1493 1488 1484 1480 1476 1471 1467 1462 1458 1453 1450 1446 1442 1439 1436 1433 1430 1428 1426 1424 1422 1420 1419 1418 1416 1415 1414
1517 1515 1525 1521 1509 1509 1513 1516 1514 1514 1512 1509 1507 1503 1500 1496 1492 1487 1483 1478 1473 1468 1463 1459 1454 1449 1445 1440 1437 1433 1429 1426 1423 1421 1418 1416 1414 1412 1411 1410 1408 1407 1406 1405
1521 1523 1521 1515 1510 1509 1511 1515 1512 1511 1508 1505 1501 1498 1494 1492 1488 1483 1477 1472 1467 1461 1456 1451 1446 1441 1436 1431 1427 1423 1420 1416 1413 1411 1408 1406 1404 1403 1401 1400 1399 1398 1397 1396
1520 1522 1527 1520 1509 1506 1508 1514 1510 1507 1505 1501 1497 1497 1491 1486 1482 1476 1471 1466 1460 1454 1449 1443 1438 1433 1427 1422 1418 1414 1410 1406 1404 1401 1399 1396 1394 1393 1392 1391 1390 1389 1388 1387
1523 1523 1522 1513 1508 1507 1518 1518 1508 1505 1502 1499 1496 1493 1486 1480 1476 1471 1465 1460 1454 1448 1442 1436 1430 1424 1418 1413 1408 1404 1400 1396 1393 1390 1388 1386 1384 1383 1382 1381 1381 1380 1379 1379
1524 1528 1525 1510 1508 1513 1514 1508 1505 1502 1499 1495 1491 1487 1481 1476 1470 1465 1459 1453 1447 1441 1434 1428 1422 1416 1409 1403 1398 1393 1389 1385 1382 1379 1377 1376 1374 1373 1373 1373 1372 1371 1371 1371
1518 1521 1512 1509 1509 1509 1508 1506 1503 1500 1496 1492 1487 1482 1477 1471 1466 1460 1454 1447 1441 1434 1426 1420 1414 1408 1400 1393 1388 1383 1378 1374 1371 1368 1367 1366 1365 1364 1364 1364 1364 1364 1364 1364
1512 1511 1510 1509 1508 1507 1505 1503 1500 1497 1493 1488 1483 1478 1472 1467 1461 1454 1448 1441 1434 1426 1419 1412 1405 1398 1392 1384 1378 1373 1368 1364 1361 1359 1357 1356 1356 1355 1355 1355 1356 1356 1357 1357
1510 1509 1508 1507 1506 1504 1502 1499 1496 1493 1490 1485 1480 1474 1469 1463 1456 1449 1442 1435 1428 1420 1412 1404 1397 1390 1383 1376 1370 1364 1359 1356 1353 1351 1349 1348 1347 1347 1348 1348 1349 1350 1351 1352
1510 1506 1506 1505 1503 1501 1499 1496 1493 1490 1485 1482 1477 1471 1465 1459 1452 1445 1437 1430 1422 1414 1405 1397 1390 1382 1375 1369 1363 1357 1352 1349 1346 1344 1342 1341 1341 1341 1341 1342 1343 1344 1345 1347
1502 1503 1503 1502 1501 1498 1496 1493 1490 1487 1483 1478 1473 1468 1462 1455 1448 1440 1432 1424 1416 1408 1400 1391 1383 1376 1369 1363 1357 1351 1347 1343 1340 1338 1336 1336 1335 1335 1336 1337 1338 1340 1341 1342
1500 1500 1500 1499 1498 1496 1493 1490 1487 1484 1480 1475 1470 1464 1458 1451 1443 1436 1428 1420 1411 1403 1394 1386 1379 1371 1365 1358 1352 1347 1342 1338 1336 1333 1332 1332 1331 1331 1332 1333 1335 1336 1338 1339
1498 1497 1497 1496 1495 1493 1490 1487 1484 1480 1476 1471 1466 1461 1454 1447 1439 1431 1424 1415 1407 1398 1390 1382 1375 1367 1361 1354 1348 1343 1339 1335 1332 1330 1329 1329 1329 1329 1330 1331 1333 1334 1336 1338
1495 1495 1494 1493 1492 1490 1487 1484 1481 1477 1473 1468 1463 1457 1451 1444 1436 1428 1420 1412 1403 1394 1386 1379 1371 1364 1357 1351 1346 1341 1337 1333 1330 1329 1328 1327 1327 1328 1328 1330 1332 1334 1335 1337
1492 1492 1491 1490 1489 1487 1485 1482 1479 1475 1471 1466 1460 1454 1448 1440 1432 1424 1416 1409 1401 1393 1385 1377 1369 1362 1355 1350 1345 1340 1335 1332 1329 1328 1327 1327 1328 1328 1329 1330 1332 1334 1336 1338
1489 1489 1488 1488 1486 1484 1482 1480 1476 1473 1468 1464 1458 1452 1445 1437 1430 1422 1414 1406 1398 1390 1383 1375 1368 1361 1354 1349 1344 1340 1336 1332 1330 1328 1328 1328 1329 1329 1330 1332 1333 1335 1337 1339
1487 1487 1486 1485 1484 1482 1480 1477 1474 1470 1466 1461 1456 1449 1443 1436 1429 1421 1413 1405 1397 1388 1381 1374 1367 1360 1355 1349 1345 1341 1337 1334 1332 1330 1330 1330 1330 1331 1333 1334 1335 1337 1339 1341
1485 1484 1483 1482 1481 1479 1477 1475 1472 1468 1464 1459 1453 1447 1441 1434 1427 1420 1412 1405 1399 1391 1383 1375 1368 1361 1356 1351 1347 1343 1340 1337 1335 1333 1333 1333 1333 1334 1336 1337 1338 1339 1341 1344
1482 1481 1481 1480 1478 1477 1475 1472 1469 1466 1462 1457 1452 1446 1440 1433 1427 1420 1412 1405 1398 1391 1384 1376 1369 1363 1358 1353 1349 1346 1343 1341 1338 1337 1336 1336 1337 1338 1339 1340 1341 1343 1345 1348
1479 1478 1478 1477 1476 1474 1472 1470 1467 1464 1460 1455 1450 1445 1439 1432 1425 1419 1414 1407 1400 1393 1385 1379 1372 1366 1361 1357 1353 1350 1347 1344 1343 1341 1341 1341 1341 1342 1343 1344 1346 1348 1350 1353
1475 1475 1475 1474 1473 1472 1470 1468 1465 1462 1458 1454 1449 1443 1438 1432 1426 1420 1413 1407 1401 1394 1388 1382 1376 1370 1365 1360 1357 1354 1351 1349 1347 1346 1346 1345 1346 1346 1347 1349 1351 1353 1355 1357
1472 1472 1471 1471 1470 1469 1468 1466 1463 1460 1457 1453 1448 1443 1437 1431 1426 1421 1415 1408 1402 1396 1390 1385 1379 1374 1369 1364 1361 1358 1356 1354 1352 1351 1350 1350 1350 1351 1352 1353 1355 1357 1359 1362
1468 1468 1468 1468 1467 1466 1465 1463 1461 1458 1455 1451 1447 1442 1437 1432 1426 1420 1415 1409 1404 1398 1393 1388 1382 1378 1373 1369 1365 1362 1360 1359 1357 1356 1355 1355 1355 1356 1357 1358 1360 1361 1363 1366
1464 1464 1464 1464 1464 1463 1462 1461 1459 1456 1453 1449 1446 1441 1436 1432 1426 1421 1415 1410 1405 1400 1395 1390 1386 1381 1377 1373 1370 1367 1365 1363 1362 1361 1360 1359 1359 1360 1361 1362 1364 1365 1368 1370
1459 1460 1460 1461 1461 1460 1459 1458 1456 1454 1451 1448 1445 1441 1436 1431 1426 1421 1416 1411 1406 1402 1398 1393 1389 1386 1382 1378 1375 1372 1370 1368 1366 1365 1365 1365 1365 1365 1366 1367 1368 1370 1372 1374